Tracking 23731 objects as of 26-Sep-2021
HD Live streaming from Space Station
objects crossing your sky now

GALAXY 1R

Track GALAXY 1R now!
GALAXY 1R is classified as:


NORAD ID: 23016
Int'l Code: 1994-013A
Perigee: 36,082.8 km
Apogee: 36,096.1 km
Inclination: 10.8 °
Period: 1,451.2 minutes
Semi major axis: 42460 km
RCS: 8.3555 m2 (large)
Launch date: February 19, 1994
Source: United States (US)
Launch site: AIR FORCE EASTERN TEST RANGE (AFETR)

24 C-band; North America, Caribbean.
aabbcc
Your satellite tracking list
Your tracking list is empty




NASA's NSSDC Master Catalog

Two Line Element Set (TLE):
1 23016U 94013A   21268.61221142 -.00000235  00000-0  00000-0 0  9998
2 23016  10.8241  33.5031 0001567  31.0174 146.1660  0.99225984 29069
Source of the keplerian elements: AFSPC